Погода в Страхове

Россия / Тульская область     54°44′07″N   37°16′01″E
темп.,
°C
ветер,
м/с
пор.,
м/с
влажн.,
%
обл.,
%
осадки,
мм/ч
давл.,
гПа
погр.,
м
17 апреля, сб
сб1700:00+11в2395100 2.8 1019108
03:00+10в499393 3.6 1019274
06:00+9всв489795 0.1 1020349
09:00+10всв5788100 0.1 1020495
12:00+12всв5780100 0.0 1019781
15:00+15в71169100 0.7 1018942
18:00+14всв81468100 2.4 1016755
21:00+10всв2897100 7.5 1018459
18 апреля, вс
вс1800:00+10всв61283100 2.8 1017672
03:00+8в4986100 3.9 1018741
06:00+6в2686100 2.4 1018638
09:00+6с1293100 8.6 1019397
12:00+6юв3387100 0.1 1020611
15:00+6всв4589100 0.2 1022502
18:00+6св4789100 0.0 1021564
21:00+6всв3793100 1.1 1022372
19 апреля, пн
пн1900:00+6всв3796100 2.5 1023332
03:00+5всв4994100 3.3 1022422
06:00+5всв4995100 0.8 1022488
09:00+6всв5994100 1.0 1023583
12:00+6всв6992100 0.1 1023735
15:00+6всв61190100 0.2 1023691
18:00+5в61192100 0.6 1023789
21:00+5всв61294100 1.1 1023957
20 апреля, вт
вт2000:00+5в71288100 0.1 1022778
03:00+3всв61291100 0.2 1021639
06:00+3всв71388100 0.0 1020640
09:00+3всв71593100 2.6 1018765
12:00+4в81693100 3.5 1016903
15:00+5в91792100 4.6 1013967
18:00+6в102092100 4.5 10081118
21:00+6вюв122391100 13.7 10041286
21 апреля, ср
ср2100:00+8вюв111992100 1.5 10011003
03:00+10юв111886100 1.8 9981088
06:00+8юв81590100 0.8 9971226
09:00+5ююв91593100 4.1 9971153
12:00+4ю101595100 1.2 999985
15:00+3ююз91596100 1.3 1004859
18:00+5ююз81489100 0.1 10081150
21:00+5юз81391100 0.3 10121179